Date,TemperatureHighF,TemperatureAvgF,TemperatureLowF,DewpointHighF,DewpointAvgF,DewpointLowF,HumidityHigh,HumidityAvg,HumidityLow,PressureMaxIn,PressureMinIn,WindSpeedMaxMPH,WindSpeedAvgMPH,GustSpeedMaxMPH,PrecipitationSumIn
2013-1-1,72.0,68.1,64.8,67.1,63.7,61.4,92,86,79,30.07,29.96,28,14,28,0.01
2013-1-2,72.5,68.2,65.7,66.3,64.0,61.9,90,87,78,30.05,29.93,20,11,20,0.03
2013-1-3,65.9,65.5,65.0,62.9,62.5,62.2,92,90,89,30.05,30.03,18,12,18,0.11
2013-1-4,72.8,67.4,64.8,65.7,63.2,61.1,93,87,74,30.09,29.97,23,13,23,0.04
2013-1-5,72.3,68.5,65.9,65.6,63.7,62.1,91,85,79,30.10,30.00,29,12,29,0.00
2013-1-6,76.0,70.4,67.5,65.8,63.5,61.0,86,79,68,30.09,29.96,25,12,25,0.00
2013-1-7,74.2,69.3,66.0,66.4,63.8,61.9,91,83,73,30.05,29.92,20,10,20,0.02
2013-1-8,75.9,69.5,66.3,65.7,63.6,61.8,88,82,67,29.96,29.84,18,10,18,0.00
2013-1-9,76.4,70.0,66.3,66.2,64.4,63.0,91,83,68,29.96,29.86,22,10,22,0.02
2013-1-10,78.5,70.3,66.3,64.9,62.6,60.3,88,77,59,29.96,29.87,16,8,16,0.00
2013-1-11,78.6,70.4,66.0,64.1,62.3,60.4,85,76,58,29.95,29.82,17,7,17,0.00
2013-1-12,76.3,69.8,67.4,67.8,65.2,61.8,93,86,73,29.92,29.83,12,4,12,0.01
2013-1-13,78.8,71.0,65.7,67.7,66.1,63.3,95,85,65,29.94,29.87,12,2,12,0.01
2013-1-14,74.7,69.0,65.6,68.8,66.1,62.4,97,91,73,29.92,29.82,23,5,23,0.96
2013-1-15,76.9,67.7,61.0,63.4,59.4,55.4,91,76,53,29.91,29.81,13,4,13,0.00
2013-1-16,77.7,67.5,59.9,62.9,57.4,49.9,83,70,55,29.92,29.78,14,4,14,0.00
2013-1-17,76.1,66.7,60.8,61.9,57.7,54.3,87,74,55,29.88,29.77,15,4,15,0.00
2013-1-18,77.8,67.1,60.0,62.4,57.5,53.4,84,72,53,29.91,29.78,15,4,15,0.00
2013-1-19,75.2,66.7,61.3,58.2,54.5,51.8,77,65,49,30.00,29.87,20,6,20,0.00
2013-1-20,73.5,66.6,62.6,57.6,55.8,52.4,79,69,49,30.02,29.93,22,10,22,0.00
2013-1-21,74.4,67.8,63.7,62.2,59.2,56.1,81,74,63,30.09,29.99,20,11,20,0.00
2013-1-22,77.0,69.1,65.5,64.3,60.3,56.6,82,74,54,30.11,29.99,20,8,20,0.00
2013-1-23,75.3,68.2,64.6,65.6,61.8,57.4,89,80,69,30.04,29.95,15,6,15,0.00
2013-1-24,72.5,66.6,63.5,66.7,63.7,61.2,94,91,79,30.04,29.95,10,3,10,0.31
2013-1-25,76.6,69.0,62.9,66.1,62.8,58.9,92,81,66,30.03,29.94,12,3,12,0.00
2013-1-26,75.8,67.8,62.5,66.3,63.2,59.2,92,85,68,29.99,29.89,14,4,14,0.01
2013-1-27,71.5,67.8,60.8,67.2,64.9,59.1,95,90,85,29.93,29.83,20,9,20,1.12
2013-1-28,71.8,66.2,61.9,66.0,63.0,60.0,95,90,80,29.94,29.85,16,4,16,0.39
2013-1-29,77.3,67.7,62.6,67.1,62.4,55.9,93,83,69,29.99,29.87,10,3,10,0.00
2013-1-30,77.0,68.3,62.3,66.5,62.1,58.1,89,81,66,30.03,29.95,13,4,13,0.01
2013-1-31,77.6,69.8,66.0,65.0,62.5,60.8,85,78,63,30.06,29.98,20,9,20,0.00
2013-2-1,76.3,68.9,63.8,61.0,58.1,50.9,83,69,44,30.07,29.99,21,11,21,0.00
2013-2-2,76.7,69.4,64.7,62.8,60.5,58.1,83,74,59,30.11,30.01,16,8,16,0.00
2013-2-3,77.1,67.3,60.1,60.5,57.8,54.9,85,72,55,30.13,30.03,23,8,23,0.00
2013-2-4,72.6,67.4,64.4,63.8,59.1,55.8,84,75,65,30.09,29.99,21,11,21,0.00
2013-2-5,75.2,67.9,63.6,60.7,59.4,57.8,88,75,57,30.06,29.97,18,9,18,0.02
2013-2-6,75.5,68.1,64.6,65.9,62.0,59.0,87,81,68,30.05,29.98,18,10,18,0.06
2013-2-7,77.2,70.0,66.0,66.2,63.6,61.2,87,80,67,30.07,29.98,17,8,17,0.00
2013-2-8,79.2,70.6,65.2,66.8,62.5,60.4,87,76,57,30.09,29.99,12,5,12,0.00
2013-2-9,76.2,68.8,63.6,63.2,60.6,59.0,87,76,58,30.10,29.99,17,7,17,0.00
2013-2-10,74.8,68.3,64.8,66.8,62.0,59.3,93,80,70,30.16,30.03,17,10,17,0.06
2013-2-11,73.6,67.8,63.9,65.3,62.1,59.7,90,82,73,30.17,30.07,22,11,22,0.00
2013-2-12,72.5,66.2,63.5,61.7,58.8,54.4,88,77,63,30.15,30.04,17,9,17,0.00
2013-2-13,73.9,66.6,62.9,58.6,56.7,53.6,82,71,57,30.10,29.97,16,8,16,0.00
2013-2-14,75.3,66.9,62.9,59.4,57.7,54.5,81,73,57,30.07,29.96,17,8,17,0.00
2013-2-15,76.9,68.9,63.7,63.8,60.4,57.0,84,75,58,30.07,29.97,18,9,18,0.00
2013-2-16,74.4,68.1,64.2,62.2,59.8,56.0,91,75,60,30.09,30.00,22,12,22,0.03
2013-2-17,73.9,67.8,63.5,61.7,58.9,56.9,89,73,60,30.12,30.01,24,13,24,0.09
2013-2-18,73.3,67.0,63.0,61.2,58.5,55.3,89,75,61,30.11,30.00,25,12,25,0.00
2013-2-19,72.2,66.5,62.7,61.9,59.3,56.2,91,78,63,30.11,30.00,21,11,21,0.06
2013-2-20,73.3,66.5,63.8,61.4,59.8,57.9,89,80,63,30.10,30.02,27,11,27,0.00
2013-2-21,71.5,66.3,63.9,65.8,62.4,58.4,93,87,77,30.11,30.03,21,11,21,0.39
2013-2-22,72.8,66.8,64.0,65.4,62.9,60.8,93,87,75,30.10,30.00,21,12,21,0.23
2013-2-23,74.0,68.1,64.0,63.9,61.9,60.5,92,81,67,30.09,30.00,23,11,23,0.03
2013-2-24,74.7,67.8,63.5,62.6,60.3,58.0,90,77,64,30.09,29.98,18,11,18,0.03
2013-2-25,75.4,68.2,64.1,61.9,59.9,57.4,87,75,59,30.10,29.99,18,11,18,0.00
2013-2-26,75.0,67.8,63.1,63.0,60.6,58.9,89,78,62,30.12,30.04,23,11,23,0.03
2013-2-27,75.5,68.2,63.6,61.0,58.7,52.6,86,73,45,30.16,30.05,25,10,25,0.00
2013-2-28,75.5,68.2,64.2,60.8,58.4,54.8,81,71,52,30.15,30.06,22,10,22,0.00
2013-3-1,74.4,67.9,64.5,61.4,57.7,55.1,80,70,56,30.15,30.03,18,10,18,0.01
2013-3-2,74.7,68.1,64.3,59.6,57.5,55.1,81,70,52,30.15,30.04,24,10,24,0.00
2013-3-3,74.3,67.8,63.6,58.3,55.8,52.0,77,66,52,30.14,30.06,22,10,22,0.00
2013-3-4,74.5,67.3,63.6,59.7,56.6,53.8,79,69,55,30.15,30.06,17,9,17,0.00
2013-3-5,76.1,68.2,63.0,59.8,57.1,53.3,81,68,51,30.12,30.02,18,7,18,0.00
2013-3-6,78.3,69.0,64.0,62.8,60.5,58.4,85,75,56,30.10,30.00,15,6,15,0.00
2013-3-7,76.2,67.8,61.0,62.5,59.1,55.6,89,75,56,30.06,29.94,13,4,13,0.00
2013-3-8,77.8,68.9,59.7,64.3,59.5,52.2,90,74,42,29.99,29.84,15,5,15,0.00
2013-3-9,75.8,69.8,64.4,67.2,64.8,62.3,94,84,72,29.90,29.81,20,9,20,0.47
2013-3-10,67.0,64.5,60.8,65.8,62.9,59.1,96,95,93,29.98,29.82,13,4,13,0.83
2013-3-11,76.8,67.5,59.9,65.3,61.0,57.1,94,81,64,30.03,29.92,13,4,13,0.00
2013-3-12,76.8,68.2,62.6,64.8,60.2,56.0,89,76,58,30.04,29.93,12,4,12,0.00
2013-3-13,75.1,67.4,61.8,63.4,59.5,55.6,85,76,60,30.06,29.95,13,6,13,0.00
2013-3-14,75.2,67.6,62.1,63.5,59.3,56.2,88,76,60,30.05,29.93,13,3,13,0.00
2013-3-15,72.5,66.4,62.8,62.8,59.3,57.0,86,78,65,29.95,29.85,20,7,20,0.00
2013-3-16,75.3,66.2,61.3,58.7,54.7,51.7,85,68,45,29.98,29.86,15,4,15,0.00
2013-3-17,74.7,64.8,59.3,58.2,55.2,51.0,85,72,51,30.00,29.88,13,5,13,0.00
2013-3-18,71.8,64.5,58.4,59.5,56.3,53.5,85,75,59,30.00,29.90,9,3,9,0.00
2013-3-19,75.0,67.5,60.1,63.9,60.0,55.1,90,77,63,29.99,29.90,12,4,12,0.06
2013-3-20,78.4,69.5,61.9,66.3,63.4,59.8,94,82,56,30.02,29.91,10,3,10,0.01
2013-3-21,77.5,71.1,65.4,69.0,65.1,59.2,90,82,72,30.02,29.92,12,4,12,0.00
2013-3-22,75.0,70.4,67.3,67.9,66.1,64.0,93,86,74,29.99,29.88,15,5,15,0.03
2013-3-23,74.0,68.4,65.9,65.2,63.0,61.0,93,83,71,29.99,29.88,18,8,18,0.02
2013-3-24,68.5,66.6,64.7,65.4,63.2,61.1,93,89,84,30.00,29.87,18,8,18,0.51
2013-3-25,76.2,69.3,63.0,68.7,64.3,59.4,90,84,73,29.99,29.89,12,4,12,0.01
2013-3-26,77.8,70.1,64.8,67.5,64.3,61.4,91,82,67,30.01,29.90,13,4,13,0.00
2013-3-27,71.4,67.9,65.0,66.6,63.7,61.4,93,86,79,30.00,29.90,21,8,21,0.34
2013-3-28,76.6,69.3,65.0,64.3,61.9,59.9,87,78,63,30.02,29.91,17,10,17,0.00
2013-3-29,75.3,68.6,64.9,65.1,62.4,59.9,89,81,69,30.02,29.94,15,7,15,0.00
2013-3-30,76.2,68.4,63.1,65.8,61.7,57.3,88,79,67,30.01,29.91,16,5,16,0.00
2013-3-31,75.1,65.6,58.6,57.2,53.1,50.3,81,65,50,30.02,29.92,17,5,17,0.00
2013-4-1,73.5,64.8,60.0,58.1,54.3,50.8,80,69,57,29.98,29.88,17,4,17,0.00
2013-4-2,73.5,64.7,57.8,57.3,54.1,51.2,84,70,47,30.05,29.93,15,6,15,0.00
2013-4-3,73.5,65.8,59.7,61.8,58.2,54.8,87,77,58,30.05,29.96,16,4,16,0.00
2013-4-4,76.7,68.5,60.2,64.4,60.8,56.0,88,77,58,30.05,29.95,13,5,13,0.00
2013-4-5,77.8,70.3,63.9,64.4,62.0,59.5,87,76,57,30.09,29.98,12,5,12,0.00
2013-4-6,78.4,72.1,68.1,69.1,66.1,64.3,90,82,71,30.11,30.02,14,6,14,0.00
2013-4-7,79.3,72.5,66.1,69.4,65.7,63.1,90,80,67,30.13,30.02,14,4,14,0.00
2013-4-8,79.8,72.0,66.9,65.1,63.2,60.8,87,75,55,30.07,29.93,13,5,13,0.00
2013-4-9,78.3,71.0,66.0,68.4,63.7,61.7,87,78,65,30.03,29.92,12,5,12,0.09
2013-4-10,78.0,71.7,67.4,68.5,64.4,62.6,87,78,64,30.03,29.92,16,6,16,0.00
2013-4-11,80.8,72.2,65.8,68.4,65.5,62.0,90,80,59,30.00,29.90,12,4,12,0.00
2013-4-12,78.5,71.7,68.5,68.8,66.2,63.8,91,83,69,29.94,29.85,15,3,15,0.00
2013-4-13,75.0,70.4,67.7,69.1,67.3,65.0,95,90,77,29.93,29.82,18,4,18,0.02
2013-4-14,75.0,69.3,65.8,69.5,67.0,63.2,96,93,82,29.93,29.83,18,7,18,0.75
2013-4-15,72.4,69.0,65.1,69.2,66.4,63.3,96,92,86,30.02,29.87,9,2,9,0.01
2013-4-16,81.3,71.9,65.2,69.6,66.3,63.1,94,83,63,30.07,29.95,13,3,13,0.00
2013-4-17,79.5,72.4,67.7,68.6,65.2,62.4,87,79,66,30.11,30.00,14,7,14,0.00
2013-4-18,78.5,71.9,67.7,67.5,64.4,62.9,86,78,63,30.10,30.03,16,9,16,0.00
2013-4-19,76.3,71.0,67.6,69.3,65.9,62.5,92,84,76,30.07,29.97,14,7,17,0.07
2013-4-20,80.2,72.0,65.4,68.7,65.6,61.8,89,81,65,30.04,29.96,14,4,14,0.00
2013-4-21,77.1,70.8,66.8,68.4,66.2,63.8,95,86,72,30.00,29.92,14,3,14,0.03
2013-4-22,75.7,70.5,67.2,70.4,67.5,64.9,96,91,80,30.00,29.91,18,4,18,0.53
2013-4-23,78.9,72.4,68.9,70.2,67.6,64.9,95,85,68,30.02,29.92,14,5,14,0.17
2013-4-24,79.9,71.4,66.0,71.2,67.1,64.6,97,87,70,30.05,29.95,12,4,12,0.50
2013-4-25,79.9,73.1,68.7,67.0,65.0,62.3,88,76,62,30.03,29.94,13,7,13,0.01
2013-4-26,78.1,72.0,67.3,65.4,63.3,61.5,85,75,58,30.00,29.93,15,7,15,0.00
2013-4-27,79.4,71.5,65.8,67.7,64.1,61.2,89,78,60,30.01,29.92,12,4,12,0.00
2013-4-28,79.1,72.2,66.0,68.7,66.7,63.6,93,84,65,29.99,29.89,12,3,12,0.00
2013-4-29,77.0,72.5,69.4,69.7,68.5,67.3,93,88,75,29.94,29.85,13,4,13,0.00
2013-4-30,80.5,71.9,68.3,71.0,67.8,65.4,95,87,70,29.99,29.88,12,2,12,0.12
2013-5-1,78.1,70.7,67.9,67.1,65.2,63.8,91,83,67,30.01,29.95,14,4,14,0.00
2013-5-2,78.6,72.7,68.1,69.4,66.0,63.2,93,80,67,30.05,29.97,13,4,13,0.02
2013-5-3,80.4,71.7,66.3,68.5,65.0,61.7,89,80,60,30.03,29.92,10,4,10,0.00
2013-5-4,74.3,70.2,66.1,68.4,65.9,62.3,93,86,79,29.97,29.86,12,4,12,0.11
2013-5-5,69.4,68.1,65.9,67.8,66.5,64.4,96,94,92,29.90,29.82,17,5,17,0.84
2013-5-6,80.7,70.4,64.4,67.3,63.0,58.9,95,79,53,29.93,29.82,10,3,10,0.01
2013-5-7,79.9,72.0,63.6,67.0,63.4,59.3,89,75,59,29.93,29.86,13,4,13,0.00
2013-5-8,83.3,73.8,62.7,67.0,63.0,54.0,88,70,55,29.98,29.89,14,4,14,0.00
2013-5-9,81.5,73.1,66.8,68.4,65.2,59.6,88,77,60,30.04,29.90,13,4,13,0.00
2013-5-10,79.7,72.5,67.7,69.7,66.0,63.4,87,80,67,30.08,29.97,20,6,20,0.00
2013-5-11,79.4,71.9,68.0,67.5,65.0,63.0,86,79,65,30.06,29.97,22,11,22,0.00
2013-5-12,77.4,71.4,67.5,67.6,65.4,62.5,87,81,71,30.06,29.98,20,11,20,0.00
2013-5-13,76.2,72.0,67.7,68.7,67.2,65.9,95,85,75,30.04,29.97,17,8,17,0.07
2013-5-14,80.8,75.9,70.4,69.3,66.6,63.9,84,73,65,30.07,30.00,22,11,22,0.00
2013-5-15,80.2,73.5,69.4,67.2,65.5,64.0,86,77,60,30.10,30.02,15,8,15,0.00
2013-5-16,80.1,73.4,68.9,66.3,64.6,62.8,87,75,58,30.08,29.99,24,9,24,0.00
2013-5-17,80.4,73.1,68.5,65.7,63.6,60.6,83,73,53,30.05,29.94,14,7,14,0.00
2013-5-18,77.8,71.8,68.1,69.0,65.1,62.8,86,79,68,30.01,29.91,10,4,10,0.08
2013-5-19,81.5,72.3,64.9,68.1,64.2,59.4,85,76,59,29.97,29.85,14,4,14,0.00
2013-5-20,79.3,70.0,65.1,64.6,59.7,52.4,88,71,47,29.95,29.85,8,2,15,0.00
2013-5-21,79.7,70.5,63.4,64.3,61.6,58.8,86,74,55,29.97,29.87,12,4,12,0.00
2013-5-22,82.4,73.3,66.3,70.9,66.6,61.1,90,80,62,30.01,29.90,12,4,12,0.00
2013-5-23,82.2,74.7,68.2,71.6,66.7,63.1,85,76,60,30.02,29.92,13,4,13,0.00
2013-5-24,82.1,74.6,70.4,67.8,66.2,64.0,85,76,59,30.03,29.96,15,7,15,0.00
2013-5-25,79.7,73.3,69.4,68.8,65.9,63.3,85,78,66,30.03,29.95,18,9,18,0.01
2013-5-26,80.5,73.7,68.4,66.3,64.4,62.3,85,74,58,30.06,29.96,16,8,16,0.00
2013-5-27,80.8,73.9,69.2,66.0,64.3,62.8,84,73,58,30.05,29.98,17,7,17,0.00
2013-5-28,71.6,71.6,71.6,64.4,64.4,64.4,78,78,78,30.02,30.02,1,1,2,0.00
2013-5-29,71.6,71.6,71.6,64.4,64.4,64.4,78,78,78,30.02,30.02,2,1,2,0.00
2013-5-30,71.6,71.6,71.6,64.4,64.4,64.4,78,78,78,30.02,30.02,1,1,2,0.00
2013-5-31,80.0,72.4,71.4,70.6,65.8,64.4,86,80,73,30.02,29.93,14,2,14,0.00
2013-6-1,81.2,74.3,70.4,70.9,67.9,65.7,88,81,63,30.05,29.95,16,8,16,0.00
2013-6-2,79.5,73.9,70.3,71.6,68.0,64.3,93,82,70,30.04,29.98,18,10,18,0.00
2013-6-3,79.7,73.6,69.9,67.0,64.6,62.4,82,74,61,30.07,29.97,16,9,16,0.00
2013-6-4,80.3,73.9,69.5,67.8,65.6,63.5,85,76,62,30.02,29.93,17,9,17,0.00
2013-6-5,81.0,73.2,69.4,68.0,64.8,61.9,88,75,60,30.01,29.93,16,9,16,0.00
2013-6-6,79.8,73.2,69.3,65.5,63.5,62.0,81,72,59,30.01,29.91,20,8,20,0.00
2013-6-7,78.5,72.8,69.1,66.4,64.3,62.2,83,75,64,30.01,29.92,20,9,20,0.00
2013-6-8,80.7,73.6,68.9,66.2,64.2,62.6,85,73,56,30.02,29.92,17,9,17,0.00
2013-6-9,80.8,74.0,70.3,67.8,65.1,63.8,86,74,57,30.04,29.96,14,8,14,0.00
2013-6-10,80.8,73.8,69.6,67.0,65.0,63.2,84,75,59,30.02,29.95,17,8,17,0.00
2013-6-11,79.3,73.6,69.9,67.7,66.1,64.5,86,78,65,30.00,29.92,13,6,13,0.00
2013-6-12,81.0,73.4,69.3,69.1,66.4,64.0,90,79,60,30.05,29.95,20,9,20,0.00
2013-6-13,79.4,72.7,68.7,68.5,66.5,64.8,93,81,66,30.07,29.99,20,10,20,0.02
2013-6-14,79.7,72.6,68.0,67.7,65.6,64.1,93,79,61,30.05,29.95,21,10,21,0.16
2013-6-15,79.8,73.1,68.8,67.0,65.2,63.9,86,77,63,29.99,29.89,17,9,17,0.00
2013-6-16,80.8,73.6,68.8,66.8,65.1,63.7,86,75,57,29.96,29.89,16,9,16,0.00
2013-6-17,70.6,70.6,70.6,64.8,64.8,64.8,82,82,82,29.95,29.95,7,7,7,0.00
2013-6-18,80.5,71.5,70.4,67.2,65.1,64.8,84,80,62,30.02,29.95,14,7,18,0.00
2013-6-19,78.3,71.5,69.6,67.9,65.2,63.9,85,81,71,30.02,29.97,14,7,14,0.00
2013-6-20,80.1,72.9,67.9,68.1,65.5,62.9,91,78,64,30.02,29.94,12,6,16,0.04
2013-6-21,81.0,72.8,66.5,68.6,66.4,63.8,92,81,65,30.02,29.93,15,9,15,0.04
2013-6-22,79.9,72.7,68.5,67.9,65.6,62.9,92,79,63,30.06,29.96,18,10,18,0.01
2013-6-23,78.9,71.5,67.9,69.6,67.0,65.0,92,86,70,30.08,30.01,17,9,17,0.05
2013-6-24,78.8,71.2,67.0,68.1,66.0,64.4,94,84,65,30.07,30.00,18,8,18,0.10
2013-6-25,75.1,70.8,67.6,69.8,66.8,65.1,94,88,77,30.04,29.97,14,7,14,0.10
2013-6-26,81.2,73.3,67.7,68.4,65.6,63.8,93,78,60,30.03,29.93,13,8,13,0.02
2013-6-27,81.8,73.2,68.5,68.4,64.9,62.4,88,76,58,29.98,29.91,16,7,16,0.00
2013-6-28,79.8,72.7,68.9,69.1,65.7,64.2,90,79,64,29.97,29.90,16,8,16,0.05
2013-6-29,80.6,72.9,67.5,67.8,65.8,63.4,93,79,58,29.99,29.90,15,7,15,0.05
2013-6-30,82.6,75.0,70.0,68.1,65.7,63.1,86,74,58,29.99,29.92,14,7,14,0.00
2013-7-1,81.2,73.6,69.5,70.5,66.6,63.8,90,79,64,29.99,29.91,14,7,14,0.02
2013-7-2,77.7,72.2,68.6,68.5,65.6,63.6,89,80,69,29.96,29.87,20,8,20,0.04
2013-7-3,80.2,72.8,68.8,68.7,65.4,63.7,86,78,67,29.96,29.88,14,6,14,0.00
2013-7-4,79.4,73.4,69.0,69.2,65.6,62.9,85,77,63,29.99,29.91,13,5,13,0.00
2013-7-5,82.6,73.9,65.6,69.2,65.0,59.7,84,74,47,29.99,29.90,13,4,13,0.00
2013-7-6,79.5,71.6,66.9,69.4,66.1,62.6,89,83,69,29.99,29.93,12,3,12,0.00
2013-7-7,83.4,74.3,66.7,70.8,67.2,63.7,90,79,62,29.96,29.85,14,4,14,0.00
2013-7-8,82.2,75.3,70.5,70.8,67.4,65.4,86,77,61,29.99,29.86,14,5,14,0.00
2013-7-9,82.8,75.9,71.2,68.5,67.2,65.3,85,75,58,30.08,29.94,23,10,23,0.00
2013-7-10,80.7,74.3,68.9,69.0,66.7,64.6,93,78,62,30.10,30.03,25,11,25,0.05
2013-7-11,79.0,72.8,68.5,68.2,66.3,64.3,91,81,67,30.07,29.97,20,10,20,0.05
2013-7-12,79.9,73.0,68.4,69.5,66.2,64.1,89,80,66,30.03,29.93,21,9,21,0.01
2013-7-13,81.9,74.6,69.2,66.8,64.2,63.0,82,71,54,29.98,29.89,21,8,21,0.00
2013-7-14,82.0,74.5,69.5,65.9,63.9,62.3,81,70,54,29.95,29.86,15,7,15,0.00
2013-7-15,80.5,73.6,69.9,69.0,65.9,64.3,85,77,61,29.97,29.89,14,5,15,0.02
2013-7-16,79.3,74.2,69.7,67.9,65.7,62.8,87,76,60,29.97,29.88,15,6,15,0.00
2013-7-17,80.9,74.4,69.8,67.3,65.4,63.9,88,74,58,29.97,29.89,16,8,16,0.00
2013-7-18,81.0,74.7,69.7,68.1,66.1,64.5,87,75,63,30.00,29.91,15,8,15,0.00
2013-7-19,81.5,75.0,70.1,70.9,67.4,65.1,88,77,68,30.03,29.95,15,6,15,0.00
2013-7-20,82.3,75.1,70.3,67.9,65.4,63.3,85,73,59,30.02,29.94,16,7,16,0.00
2013-7-21,83.7,75.0,70.1,68.1,65.3,63.3,86,73,53,29.97,29.89,14,8,14,0.00
2013-7-22,81.5,75.5,70.9,72.8,69.2,63.7,94,81,69,29.96,29.89,15,5,15,0.14
2013-7-23,79.9,74.4,69.9,73.0,69.8,67.0,94,86,77,29.98,29.90,8,3,8,0.00
2013-7-24,83.0,75.4,71.0,70.0,67.8,64.4,87,78,63,29.96,29.85,15,6,15,0.00
2013-7-25,84.0,75.3,69.4,68.3,66.1,64.2,85,74,57,29.93,29.86,12,6,12,0.00
2013-7-26,81.6,74.5,69.9,68.3,66.5,64.6,89,77,61,30.00,29.89,14,7,14,0.00
2013-7-27,82.3,75.2,70.2,69.0,66.6,64.1,85,75,57,30.00,29.90,22,9,22,0.00
2013-7-28,83.3,75.4,69.3,70.1,66.7,63.9,89,75,55,29.98,29.89,16,7,16,0.02
2013-7-29,82.2,75.5,72.2,74.2,71.4,69.2,95,87,70,29.96,29.82,20,7,20,0.07
2013-7-30,84.1,76.6,70.3,75.8,72.1,68.8,97,87,69,30.11,29.93,15,3,15,0.20
2013-7-31,81.3,75.6,72.1,72.0,69.4,65.2,93,82,69,30.11,30.04,13,6,21,0.01
2013-8-1,81.0,73.9,69.7,68.0,66.3,64.8,89,78,59,30.11,30.01,11,5,20,0.00
2013-8-2,82.9,74.9,70.5,68.2,66.6,65.5,87,76,59,30.07,29.98,11,5,20,0.00
2013-8-3,82.5,75.1,70.4,68.5,66.3,64.9,87,75,58,30.06,29.97,10,4,18,0.00
2013-8-4,83.5,75.6,70.1,67.5,66.4,65.1,87,74,58,30.04,29.96,10,4,16,0.00
2013-8-5,82.5,75.3,70.8,69.9,67.1,65.1,84,76,64,30.03,29.95,11,5,17,0.00
2013-8-6,83.2,75.7,70.8,67.2,65.6,63.7,85,72,52,30.04,29.97,9,4,13,0.00
2013-8-7,82.8,75.3,70.3,66.8,64.9,61.0,82,71,48,30.07,29.99,9,4,16,0.00
2013-8-8,83.0,75.3,70.4,67.5,65.1,63.1,82,71,53,30.09,30.00,10,4,15,0.00
2013-8-9,83.9,75.6,69.0,69.3,66.2,63.1,92,74,54,30.07,29.97,9,4,16,0.03
2013-8-10,81.0,74.3,69.2,72.6,69.3,66.0,91,85,73,30.04,29.97,13,6,21,0.03
2013-8-11,83.1,76.5,72.6,72.3,69.9,67.1,91,81,65,30.05,29.98,11,6,19,0.00
2013-8-12,83.3,76.4,71.9,68.9,66.0,61.9,86,71,51,30.08,30.00,12,5,20,0.00
2013-8-13,81.8,74.1,71.4,69.0,66.4,64.3,85,77,60,30.06,29.97,10,4,16,0.02
2013-8-14,83.6,75.8,71.0,67.7,65.5,61.8,84,71,52,30.03,29.94,12,4,18,0.00
2013-8-15,81.5,74.8,70.7,68.9,65.9,63.6,84,74,60,30.04,29.97,13,5,18,0.00
2013-8-16,84.7,75.4,69.5,69.2,66.6,64.7,89,75,55,30.06,29.97,11,5,20,0.02
2013-8-17,82.8,75.2,70.4,67.2,65.1,63.2,82,72,54,30.04,29.95,10,5,17,0.00
2013-8-18,82.6,75.4,70.3,68.0,66.0,64.0,82,73,59,30.05,29.96,10,4,16,0.00
2013-8-19,85.6,75.7,70.1,67.3,64.3,57.8,86,70,41,30.05,29.95,8,3,16,0.00
2013-8-20,85.0,75.8,68.9,71.2,67.2,64.2,88,76,57,30.01,29.92,9,2,12,0.00
2013-8-21,83.0,75.6,69.7,71.7,68.8,66.2,89,80,65,29.99,29.91,7,1,14,0.00
2013-8-22,84.5,76.9,69.9,72.0,68.4,65.9,89,76,61,30.00,29.90,8,2,15,0.00
2013-8-23,84.6,76.1,71.9,70.0,66.8,65.2,83,74,55,30.02,29.93,7,3,14,0.00
2013-8-24,83.3,76.1,71.5,68.5,66.6,65.1,83,73,55,30.05,29.95,10,4,17,0.00
2013-8-25,83.7,76.3,71.6,68.9,66.2,64.9,82,72,56,30.09,30.00,14,5,18,0.00
2013-8-26,83.9,76.3,72.0,68.3,66.1,63.8,81,71,54,30.11,30.02,10,4,17,0.00
2013-8-27,85.2,76.0,70.8,66.8,64.6,58.4,81,69,41,30.11,30.00,10,4,17,0.00
2013-8-28,84.8,75.4,69.4,70.4,65.5,61.3,87,73,50,30.05,29.91,10,3,15,0.04
2013-8-29,83.3,75.5,68.7,69.3,66.6,64.1,92,75,56,29.98,29.88,8,3,14,0.02
2013-8-30,84.3,76.3,71.0,67.9,66.1,62.6,85,72,49,30.05,29.94,9,3,15,0.00
2013-8-31,83.1,75.9,71.2,68.7,66.2,63.6,85,73,52,30.06,29.96,10,4,18,0.00
2013-9-1,82.2,75.0,69.4,69.6,65.9,62.2,92,74,58,30.03,29.94,11,4,18,0.05
2013-9-2,82.9,75.5,71.0,68.4,64.9,61.3,82,70,53,30.05,29.95,10,4,16,0.00
2013-9-3,81.2,74.6,70.9,68.5,65.9,64.4,82,75,60,30.05,29.94,10,4,16,0.01
2013-9-4,81.8,74.7,70.1,70.1,66.2,64.2,84,75,59,30.03,29.95,8,2,15,0.00
2013-9-5,84.8,75.4,68.8,69.1,66.0,62.2,84,73,54,30.10,29.99,7,2,12,0.00
2013-9-6,82.2,74.9,69.3,70.0,66.8,63.9,86,76,63,30.09,30.00,9,2,14,0.00
2013-9-7,84.7,75.8,69.7,72.3,68.7,65.8,91,79,62,30.07,29.96,9,4,18,0.08
2013-9-8,84.2,77.1,72.2,69.0,67.6,66.2,83,73,56,30.07,29.99,12,4,18,0.00
2013-9-9,84.8,76.6,71.6,67.6,65.6,61.3,84,70,48,30.08,30.00,10,4,17,0.00
2013-9-10,84.2,76.6,71.7,68.8,66.5,64.8,82,72,57,30.08,29.98,11,4,18,0.00
2013-9-11,85.7,77.3,71.9,70.1,67.9,65.6,86,73,58,30.09,29.99,11,4,16,0.00
2013-9-12,83.8,76.6,73.2,73.6,69.5,66.4,91,79,61,30.03,29.93,8,4,15,0.16
2013-9-13,82.2,75.1,70.8,72.4,69.3,67.0,95,83,63,29.96,29.87,9,4,15,0.33
2013-9-14,84.1,76.6,71.7,69.6,67.9,66.5,84,75,58,29.95,29.86,9,4,16,0.00
2013-9-15,85.5,77.2,71.8,71.1,68.0,64.9,90,74,52,30.00,29.89,9,3,16,0.00
2013-9-16,84.2,77.0,72.6,68.7,67.2,64.1,84,72,55,30.05,29.95,11,5,20,0.00
2013-9-17,82.1,74.4,72.4,70.9,67.5,66.6,91,79,64,30.04,29.96,12,5,20,0.02
2013-9-18,83.9,76.6,72.2,68.9,67.2,66.2,83,74,56,30.01,29.94,13,5,20,0.00
2013-9-19,83.3,76.4,71.8,67.6,66.4,64.2,85,72,54,30.05,29.95,10,4,18,0.00
2013-9-20,82.7,75.9,71.0,69.7,66.2,64.2,85,72,54,30.06,29.98,11,5,20,0.01
2013-9-21,81.8,74.9,68.6,67.7,66.0,64.2,90,75,59,30.05,29.96,11,5,23,0.09
2013-9-22,83.0,75.9,70.9,68.5,66.1,64.1,85,73,55,30.04,29.95,10,5,20,0.00
2013-9-23,82.8,75.4,71.3,69.5,66.8,64.7,83,75,58,30.03,29.94,8,4,14,0.00
2013-9-24,80.8,74.7,71.8,70.0,67.3,65.5,84,78,66,30.04,29.94,10,4,16,0.00
2013-9-25,80.0,74.1,71.0,70.2,67.4,65.7,86,80,68,30.06,29.96,12,4,18,0.02
2013-9-26,80.9,74.2,70.5,72.4,67.5,65.8,91,80,65,30.02,29.94,8,3,13,0.15
2013-9-27,81.0,75.0,71.4,69.2,66.8,65.5,83,76,62,30.09,29.97,9,4,14,0.00
2013-9-28,82.8,75.6,71.2,68.3,66.6,64.4,87,74,57,30.11,30.01,12,5,20,0.00
2013-9-29,82.5,74.7,70.6,68.9,65.9,63.3,86,75,53,30.07,29.95,11,4,20,0.02
2013-9-30,80.2,73.6,71.2,70.7,67.6,66.1,86,82,69,30.04,29.96,11,3,16,0.08
2013-10-1,82.6,75.6,71.2,70.1,68.2,66.1,87,78,64,30.02,29.93,10,3,16,0.00
2013-10-2,83.0,75.7,71.9,70.0,67.8,66.2,84,77,64,30.00,29.90,9,4,16,0.00
2013-10-3,81.1,74.8,71.4,69.4,67.0,65.7,86,77,62,30.00,29.91,10,3,15,0.00
2013-10-4,82.0,74.4,71.2,69.2,66.6,64.8,84,77,58,30.01,29.93,8,3,17,0.00
2013-10-5,81.2,74.6,70.1,68.8,66.3,64.0,87,76,64,30.02,29.93,12,5,20,0.00
2013-10-6,77.8,72.9,71.3,68.3,66.2,64.9,83,80,71,30.01,29.95,11,4,15,0.00
2013-10-7,73.4,72.8,72.1,67.5,67.0,66.3,84,82,80,30.07,30.02,8,4,17,0.00
2013-10-8,81.3,74.5,71.4,69.8,66.9,65.7,86,78,63,30.08,30.00,10,5,16,0.01
2013-10-9,82.6,75.0,70.8,67.8,66.3,64.8,87,75,56,30.06,29.95,11,5,17,0.01
2013-10-10,83.5,75.0,70.3,68.6,66.6,65.0,85,76,58,30.01,29.93,9,3,15,0.00
2013-10-11,84.0,76.0,70.1,72.9,69.3,65.7,88,80,63,30.01,29.92,8,2,12,0.00
2013-10-12,84.0,76.4,68.8,71.7,68.8,63.8,89,78,63,30.02,29.94,9,2,14,0.00
2013-10-13,83.4,75.2,69.7,72.5,68.5,65.3,88,80,60,30.00,29.91,10,2,16,0.00
2013-10-14,82.6,72.3,67.9,70.8,67.3,65.0,95,85,63,29.99,29.91,9,2,14,1.90
2013-10-15,81.2,74.0,68.2,71.6,67.5,64.3,88,81,68,30.00,29.90,7,2,12,0.00
2013-10-16,81.9,74.6,69.2,68.9,66.3,63.8,87,76,60,30.00,29.90,7,3,13,0.00
2013-10-17,84.6,75.2,68.1,71.6,67.9,64.7,90,79,59,30.01,29.92,9,2,13,0.01
2013-10-18,88.3,75.3,68.1,71.0,66.3,60.4,91,75,42,29.98,29.85,11,2,17,0.00
2013-10-19,83.3,73.7,66.7,70.4,65.4,60.8,89,76,59,29.91,29.83,9,2,15,0.00
2013-10-20,81.8,73.2,67.5,68.2,65.4,62.3,87,77,55,29.96,29.86,6,1,12,0.00
2013-10-21,81.3,71.8,65.7,67.3,63.3,59.7,85,75,60,30.00,29.89,8,2,12,0.00
2013-10-22,80.6,73.1,67.3,70.0,65.5,61.1,86,77,64,30.00,29.92,8,2,14,0.00
2013-10-23,82.2,74.4,69.5,70.0,65.9,63.9,86,75,59,30.02,29.92,6,2,12,0.00
2013-10-24,81.5,73.9,69.3,68.9,66.1,64.7,87,77,60,30.00,29.90,9,2,12,0.00
2013-10-25,84.2,74.4,69.4,70.9,67.4,65.0,88,79,57,30.03,29.92,7,2,12,0.00
2013-10-26,84.5,75.9,69.4,72.8,69.0,65.1,91,80,61,30.03,29.94,4,1,8,0.00
2013-10-27,80.8,74.4,70.6,73.6,70.2,67.4,94,87,76,30.05,29.95,8,1,12,0.18
2013-10-28,81.8,75.1,70.1,73.6,69.1,66.4,90,82,69,30.05,29.93,9,2,12,0.00
2013-10-29,82.1,74.8,71.1,69.3,66.9,64.7,86,77,57,30.07,29.97,6,3,14,0.00
2013-10-30,81.5,74.0,69.3,70.3,66.6,64.0,85,78,63,30.11,30.00,6,2,12,0.00
2013-10-31,80.2,73.8,71.1,70.2,67.7,66.1,88,81,69,30.11,30.02,9,3,17,0.18
2013-11-1,79.0,73.1,69.6,68.9,66.7,64.3,93,81,67,30.09,29.97,9,5,20,0.07
2013-11-2,79.7,73.3,70.1,69.8,65.8,63.1,90,78,61,30.10,29.98,11,5,18,0.02
2013-11-3,79.7,73.5,70.0,67.8,64.9,63.0,83,75,59,30.10,29.98,12,6,20,0.00
2013-11-4,79.6,73.2,69.7,67.0,65.2,63.7,84,76,60,30.05,29.95,10,4,15,0.00
2013-11-5,81.0,74.1,70.2,69.7,66.7,63.7,85,78,65,30.01,29.92,11,4,17,0.00
2013-11-6,80.5,73.2,69.8,70.6,66.7,64.4,88,80,68,29.99,29.88,10,3,18,0.00
2013-11-7,80.0,73.2,67.6,70.5,67.3,63.8,89,82,70,30.00,29.90,6,2,10,0.00
2013-11-8,81.0,74.2,70.1,71.2,68.2,66.0,90,82,67,30.00,29.87,9,2,15,0.00
2013-11-9,76.8,71.5,67.6,71.4,67.5,64.7,93,87,80,29.94,29.83,13,4,21,0.36
2013-11-10,76.0,69.7,66.1,66.3,64.0,60.1,91,82,70,30.00,29.85,15,9,26,0.09
2013-11-11,73.9,69.4,64.9,63.4,60.5,58.3,81,74,66,30.00,29.90,14,7,26,0.00
2013-11-12,76.4,68.6,65.4,61.4,59.4,57.3,81,73,53,30.02,29.91,12,5,20,0.00
2013-11-13,79.2,70.3,64.7,62.0,59.4,56.0,80,69,48,30.02,29.92,10,2,16,0.00
2013-11-14,76.5,71.6,67.2,68.4,64.1,58.4,91,77,63,30.02,29.91,5,1,9,0.04
2013-11-15,79.8,73.9,70.2,72.6,69.3,66.6,94,86,72,30.06,29.97,7,1,14,0.03
2013-11-16,79.5,74.2,70.8,69.2,67.4,65.4,88,80,67,30.07,29.94,10,3,15,0.00
2013-11-17,82.3,74.1,67.9,69.0,65.9,61.8,88,76,58,30.03,29.90,9,2,15,0.00
2013-11-18,81.3,73.6,67.5,71.1,67.5,63.6,91,82,69,29.98,29.87,6,1,12,0.00
2013-11-19,83.4,72.9,66.5,69.7,64.8,60.4,88,76,51,29.99,29.87,5,2,10,0.00
2013-11-20,80.8,72.9,67.9,70.8,67.0,62.2,89,82,70,30.01,29.91,7,1,12,0.00
2013-11-21,82.6,73.6,68.2,70.3,66.5,62.6,88,79,60,30.06,29.92,8,1,13,0.02
2013-11-22,81.1,72.3,66.7,68.1,64.7,61.1,89,78,58,30.05,29.95,10,2,17,0.00
2013-11-23,76.3,70.5,66.9,64.7,61.7,55.8,86,74,59,30.04,29.91,11,6,20,0.00
2013-11-24,76.8,70.0,65.1,62.6,59.0,53.8,79,68,57,30.03,29.92,9,3,14,0.00
2013-11-25,77.2,71.0,66.9,64.3,62.2,61.2,83,74,61,30.08,29.96,8,3,13,0.00
2013-11-26,80.6,72.8,68.4,66.0,64.0,61.8,83,75,58,30.11,29.98,8,4,13,0.00
2013-11-27,81.4,72.4,67.2,66.6,63.9,61.1,87,75,53,30.10,29.95,9,2,13,0.00
2013-11-28,78.6,72.5,67.2,68.5,66.2,63.1,89,81,65,30.03,29.92,8,2,14,0.00
2013-11-29,75.5,71.2,68.3,70.5,66.9,64.0,95,86,78,29.97,29.86,10,2,21,0.27
2013-11-30,76.2,72.9,69.4,69.8,68.3,66.7,94,86,78,29.98,29.88,11,4,20,0.04
2013-12-1,72.6,68.9,65.3,69.3,66.8,63.1,97,93,86,30.01,29.89,15,2,25,1.60
2013-12-2,79.5,72.2,67.3,70.9,67.6,65.0,94,86,72,30.03,29.92,6,1,10,0.01
2013-12-3,77.9,72.3,68.3,70.2,67.3,63.6,92,84,71,30.01,29.89,5,1,9,0.03
2013-12-4,79.0,71.3,66.3,67.9,64.9,63.1,94,81,62,30.01,29.89,6,1,12,0.00
2013-12-5,78.0,70.5,64.3,66.9,63.9,59.7,89,80,64,30.03,29.91,7,2,12,0.00
2013-12-6,80.6,71.7,65.4,68.4,64.2,59.8,88,78,61,30.03,29.91,8,2,14,0.00
2013-12-7,79.8,71.8,66.0,68.3,64.7,61.9,90,79,64,30.00,29.90,6,2,12,0.00
2013-12-8,80.6,73.2,67.0,70.8,67.5,62.1,95,83,64,30.05,29.94,8,2,12,0.51
2013-12-9,82.7,74.4,68.6,71.6,69.2,66.8,96,85,68,30.09,30.00,7,2,13,0.01
2013-12-10,79.2,73.3,70.0,70.4,67.1,64.2,92,81,67,30.07,29.95,11,4,20,0.01
2013-12-11,78.4,72.0,68.8,70.1,66.4,63.9,92,83,73,30.07,29.94,7,3,16,0.01
2013-12-12,81.4,72.7,67.4,67.4,65.2,62.1,89,78,54,30.08,29.96,6,2,17,0.00
2013-12-13,77.7,71.9,68.0,68.9,65.7,63.1,87,81,69,30.08,29.97,7,2,13,0.00
2013-12-14,78.1,71.4,67.8,68.3,65.5,62.6,90,82,69,30.02,29.90,8,2,12,0.00
2013-12-15,74.0,67.7,64.1,66.5,64.7,61.6,95,90,72,30.01,29.83,7,0,13,1.29
2013-12-16,80.5,70.8,64.6,68.7,63.4,55.0,94,78,60,30.01,29.91,7,1,10,0.02
2013-12-17,78.8,70.8,64.9,66.8,62.4,56.9,86,75,56,30.06,29.95,8,3,14,0.00
2013-12-18,75.8,69.6,66.9,67.7,63.8,61.7,90,82,71,30.06,29.95,8,3,13,0.20
2013-12-19,76.4,70.0,65.8,68.2,64.8,61.8,91,84,72,30.08,29.98,7,3,13,0.21
2013-12-20,78.2,71.5,67.9,67.9,65.5,63.8,88,82,68,30.07,29.96,7,2,12,0.00
2013-12-21,78.7,71.4,67.5,69.3,66.1,62.8,89,84,70,30.03,29.93,6,1,10,0.00
2013-12-22,78.5,70.0,64.7,69.0,64.5,61.0,90,83,69,30.02,29.93,8,2,13,0.10
2013-12-23,77.4,71.3,67.6,67.5,65.1,62.9,88,81,69,30.07,29.95,8,4,15,0.00
2013-12-24,77.7,71.4,68.5,67.4,64.5,62.6,85,79,68,30.09,29.99,11,5,18,0.00
2013-12-25,77.2,71.0,67.9,66.7,63.8,61.4,84,78,68,30.07,29.95,13,6,20,0.00
2013-12-26,77.3,70.5,67.0,66.7,63.4,61.3,84,78,68,30.04,29.92,12,4,16,0.00
2013-12-27,77.1,71.2,67.4,65.7,63.1,60.2,83,76,64,30.02,29.89,11,5,20,0.00
2013-12-28,79.4,72.3,68.8,68.0,65.1,62.6,88,79,66,29.98,29.86,16,6,26,0.00
2013-12-29,75.2,69.3,66.2,64.4,62.3,60.3,86,79,65,30.01,29.90,15,8,24,0.00
2013-12-30,75.3,68.7,65.6,64.3,61.9,60.2,86,79,69,30.01,29.92,12,5,21,0.00
2013-12-31,78.0,70.1,65.1,67.1,63.6,60.6,87,80,68,30.03,29.92,8,2,14,0.00
2014-1-1,79.5,70.5,64.0,68.3,64.0,59.5,92,81,63,29.99,29.86,7,1,12,0.00
2014-1-2,74.9,70.7,66.3,70.2,68.0,64.7,96,91,83,29.91,29.74,14,6,24,0.83